Weather History for KEQY - February, 2014

Change the Weather History Date:

Wednesday, February 5, 2014

  Actual Average (KCLT) Record (KCLT)
Temperature  
Mean Temperature 47 °F 42 °F  
Max Temperature 57 °F 53 °F 78 °F (1890)
Min Temperature 37 °F 31 °F 6 °F (1886)
Degree Days  
Heating Degree Days 18 23  
Month to date heating degree days 116  
Since 1 July heating degree days 2223  
Cooling Degree Days 0 0  
Month to date cooling degree days 0  
Year to date cooling degree days 0  
Moisture  
Dew Point 40 °F    
Average Humidity 88    
Maximum Humidity 100    
Minimum Humidity 49    
Precipitation  
Precipitation 0.01 in 0.11 in 2.00 in (2010)
Month to date precipitation 0.56  
Year to date precipitation 3.97  
Snow  
Snow 0.00 in 0.10 in 3.50 in (1929)
Month to date snowfall 0.3  
Since 1 July snowfall 2.8  
Snow Depth -    
Sea Level Pressure  
Sea Level Pressure 29.95 in    
Wind  
Wind Speed 5 mph (West)    
Max Wind Speed 20 mph    
Max Gust Speed 25 mph    
Visibility 6 miles    
Events Rain    
T = Trace of Precipitation, MM = Missing Value Source: NWS Daily Summary

Daily Weather History Graph

Daily Weather History Graph

Search for Another Location

Airport or City:

Trip Planner

Search our weather history database for the weather conditions in past years. The results will help you decide how hot, cold, wet, or windy it might be!

Date:

Astronomy

Feb. 05, 2014 Rise Set
Actual Time 7:18 AM EST 5:55 PM EST
Civil Twilight 6:51 AM EST 6:21 PM EST
Nautical Twilight 6:21 AM EST 6:51 PM EST
Astronomical Twilight 5:51 AM EST 7:21 PM EST
Moon 10:48 AM EST (2/5) No Moon Set
Length of Visible Light 11h 30m
Length of Day
10h 37m
Waxing Crescent, 39% of the Moon is Illuminated
Feb 5
Waxing Crescent
Feb 6
First Quarter
Feb 14
Full
Feb 22
Last Quarter
Mar 1
New

Hourly Weather History & Observations

Time (EST) Temp. Windchill Dew Point Humidity Pressure Visibility Wind Dir Wind Speed Gust Speed Precip Events Conditions
12:35 AM 37.4 °F 32.8 °F 37.4 °F 100% 30.07 in 3.0 mi NNE 5.8 mph - N/A   Overcast
12:53 AM 37.9 °F 34.4 °F 37.0 °F 97% 30.12 in 3.0 mi NE 4.6 mph - N/A   Overcast
1:08 AM 37.4 °F 34.9 °F 37.4 °F 100% 30.07 in 2.5 mi North 3.5 mph - N/A   Overcast
1:53 AM 37.9 °F 34.4 °F 37.0 °F 97% 30.09 in 2.5 mi NNE 4.6 mph - N/A   Overcast
2:53 AM 37.9 °F 34.4 °F 37.0 °F 97% 30.05 in 2.0 mi NE 4.6 mph - 0.00 in   Overcast
3:01 AM 37.4 °F 33.8 °F 37.4 °F 100% 29.99 in 1.8 mi NNE 4.6 mph - N/A   Overcast
3:35 AM 37.4 °F 34.9 °F 37.4 °F 100% 29.96 in 2.0 mi East 3.5 mph - N/A   Overcast
3:42 AM 37.4 °F - 37.4 °F 100% 29.97 in 1.5 mi Calm Calm - N/A   Overcast
3:53 AM 37.9 °F - 37.0 °F 97% 30.01 in 1.8 mi Calm Calm - N/A   Overcast
4:53 AM 37.9 °F - 37.9 °F 100% 29.97 in 1.2 mi Calm Calm - N/A   Overcast
5:53 AM 37.9 °F - 37.9 °F 100% 29.99 in 1.5 mi Calm Calm - 0.00 in Rain Light Rain
6:24 AM 37.4 °F - 37.4 °F 100% 29.92 in 2.0 mi Calm Calm - 0.00 in   Overcast
6:34 AM 39.2 °F - 37.4 °F 93% 29.92 in 2.5 mi Calm Calm - 0.00 in Rain Light Rain
6:48 AM 37.4 °F - 37.4 °F 100% 29.93 in 3.0 mi Calm Calm - 0.00 in Rain Light Rain
6:53 AM 37.9 °F - 37.0 °F 97% 29.99 in 3.0 mi Calm Calm - 0.00 in Rain Light Rain
7:01 AM 39.2 °F - 37.4 °F 93% 29.92 in 2.5 mi Calm Calm - 0.00 in Rain Light Rain
7:08 AM 37.4 °F - 37.4 °F 100% 29.91 in 2.0 mi Calm Calm - 0.00 in Rain Light Rain
7:15 AM 39.2 °F - 37.4 °F 93% 29.91 in 1.8 mi Calm Calm - 0.00 in   Overcast
7:26 AM 37.4 °F - 37.4 °F 100% 29.91 in 2.5 mi Calm Calm - 0.00 in Rain Light Rain
7:50 AM 39.2 °F 37.0 °F 37.4 °F 93% 29.89 in 3.0 mi SE 3.5 mph - 0.00 in Rain Light Rain
7:53 AM 39.0 °F - 37.9 °F 96% 29.95 in 3.0 mi Calm Calm - 0.00 in Rain Light Rain
8:53 AM 39.9 °F 37.8 °F 39.0 °F 97% 29.94 in 5.0 mi West 3.5 mph - 0.00 in Rain Light Rain
9:53 AM 41.0 °F 37.1 °F 39.9 °F 96% 29.95 in 10.0 mi WSW 5.8 mph - 0.01 in   Overcast
10:53 AM 42.1 °F 37.1 °F 41.0 °F 96% 29.94 in 5.0 mi WSW 8.1 mph - N/A   Overcast
11:06 AM 42.8 °F 38.0 °F 42.8 °F 100% 29.88 in 2.5 mi SW 8.1 mph - N/A   Overcast
11:17 AM 42.8 °F 37.5 °F 42.8 °F 100% 29.87 in 4.0 mi SW 9.2 mph - N/A   Overcast
11:42 AM 44.6 °F 38.1 °F 42.8 °F 93% 29.86 in 2.5 mi SW 13.8 mph - N/A   Overcast
11:53 AM 46.0 °F 41.4 °F 45.0 °F 96% 29.91 in 3.0 mi SW 9.2 mph - N/A   Overcast
12:39 PM 48.2 °F - 46.4 °F 93% 29.83 in 10.0 mi WSW 19.6 mph 24.2 mph N/A   Overcast
12:53 PM 50.0 °F - 46.9 °F 89% 29.88 in 10.0 mi WSW 15.0 mph 25.3 mph N/A   Overcast
1:00 PM 50.0 °F - 46.4 °F 87% 29.83 in 10.0 mi WSW 16.1 mph - N/A   Overcast
1:42 PM 53.6 °F - 48.2 °F 82% 29.82 in 10.0 mi WSW 13.8 mph 24.2 mph N/A   Mostly Cloudy
1:51 PM 53.6 °F - 48.2 °F 82% 29.82 in 10.0 mi West 12.7 mph - N/A   Scattered Clouds
1:53 PM 53.1 °F - 48.0 °F 83% 29.86 in 10.0 mi West 11.5 mph - N/A   Scattered Clouds
2:53 PM 55.9 °F - 48.0 °F 75% 29.87 in 10.0 mi WSW 11.5 mph - N/A   Clear
3:53 PM 57.9 °F - 46.9 °F 67% 29.88 in 10.0 mi West 11.5 mph - N/A   Clear
4:53 PM 57.9 °F - 48.0 °F 70% 29.90 in 10.0 mi SW 8.1 mph - N/A   Clear
5:53 PM 55.9 °F - 46.0 °F 69% 29.93 in 10.0 mi SW 4.6 mph - N/A   Clear
6:53 PM 53.1 °F - 46.0 °F 77% 29.95 in 10.0 mi SW 9.2 mph - N/A   Clear
7:53 PM 52.0 °F - 33.1 °F 49% 29.99 in 10.0 mi NNW 8.1 mph 17.3 mph N/A   Overcast
8:53 PM 50.0 °F - 33.1 °F 52% 30.04 in 10.0 mi North 6.9 mph - N/A   Overcast
9:53 PM 46.0 °F 39.9 °F 30.9 °F 56% 30.08 in 10.0 mi North 13.8 mph - N/A   Overcast
10:53 PM 44.1 °F 39.0 °F 28.9 °F 55% 30.11 in 10.0 mi North 9.2 mph - N/A   Clear
11:53 PM 42.1 °F 37.7 °F 28.9 °F 60% 30.14 in 10.0 mi NNW 6.9 mph - N/A   Clear